START_TIME,STEP,MOV.,E45,t_acc.,ALAR?,t_acc.,A12,t_acc.,A24,t_acc.
1979-03-07 03:00:23.990 ,4,1,592.,4.8,23040.,4.8,2.,4.8,0.,4.8
1979-03-07 03:00:28.790 ,4,1,592.,4.8,22016.,4.8,0.,4.8,0.,4.8
1979-03-07 03:00:33.590 ,4,1,528.,4.8,20992.,4.8,0.,4.8,0.,4.8
1979-03-07 03:00:38.390 ,4,1,416.,4.8,19456.,4.8,0.,4.8,0.,4.8
1979-03-07 03:00:43.190 ,4,1,280.,4.8,18944.,4.8,0.,4.8,0.,4.8
1979-03-07 03:00:47.990 ,7,1,544.,4.8,25088.,4.8,0.,4.8,0.,4.8
1979-03-07 03:00:52.790 ,7,1,544.,4.8,27648.,4.8,0.,4.8,0.,4.8
1979-03-07 03:00:57.590 ,7,1,544.,4.8,25600.,4.8,0.,4.8,0.,4.8
1979-03-07 03:01:02.390 ,7,1,544.,4.8,24064.,4.8,0.,4.8,0.,4.8
1979-03-07 03:01:07.190 ,7,1,448.,4.8,21504.,4.8,0.,4.8,0.,4.8
1979-03-07 03:01:11.990 ,3,1,472.,4.8,20992.,4.8,0.,4.8,0.,4.8
1979-03-07 03:01:16.790 ,3,1,512.,4.8,24576.,4.8,0.,4.8,0.,4.8
1979-03-07 03:01:21.590 ,3,1,504.,4.8,25600.,4.8,0.,4.8,0.,4.8
1979-03-07 03:01:26.390 ,3,1,512.,4.8,25600.,4.8,0.,4.8,0.,4.8
1979-03-07 03:01:31.190 ,3,1,464.,4.8,23040.,4.8,0.,4.8,0.,4.8
1979-03-07 03:01:35.990 ,0,1,240.,4.8,17408.,4.8,0.,4.8,0.,4.8
1979-03-07 03:01:40.790 ,0,1,464.,4.8,19968.,4.8,0.,4.8,0.,4.8
1979-03-07 03:01:45.590 ,0,1,512.,4.8,20992.,4.8,0.,4.8,0.,4.8
1979-03-07 03:01:50.390 ,0,1,544.,4.8,22016.,4.8,1.,4.8,0.,4.8
1979-03-07 03:01:55.190 ,0,1,528.,4.8,22528.,4.8,0.,4.8,0.,4.8
1979-03-07 03:01:59.990 ,4,1,512.,4.8,23040.,4.8,0.,4.8,0.,4.8
1979-03-07 03:02:04.790 ,4,1,528.,4.8,22016.,4.8,0.,4.8,0.,4.8
1979-03-07 03:02:09.590 ,4,1,480.,4.8,20992.,4.8,0.,4.8,0.,4.8
1979-03-07 03:02:14.390 ,4,1,424.,4.8,19456.,4.8,0.,4.8,0.,4.8
1979-03-07 03:02:19.190 ,4,1,312.,4.8,18944.,4.8,0.,4.8,0.,4.8
1979-03-07 03:02:23.990 ,7,1,488.,4.8,24576.,4.8,0.,4.8,0.,4.8
1979-03-07 03:02:28.790 ,7,1,512.,4.8,26112.,4.8,0.,4.8,0.,4.8
1979-03-07 03:02:33.590 ,7,1,592.,4.8,25088.,4.8,0.,4.8,0.,4.8
1979-03-07 03:02:38.390 ,7,1,512.,4.8,23040.,4.8,0.,4.8,0.,4.8
1979-03-07 03:02:43.190 ,7,1,480.,4.8,20992.,4.8,0.,4.8,0.,4.8
1979-03-07 03:02:47.990 ,3,1,440.,4.8,20992.,4.8,0.,4.8,0.,4.8
1979-03-07 03:02:52.790 ,3,1,528.,4.8,24064.,4.8,0.,4.8,0.,4.8
1979-03-07 03:02:57.590 ,3,1,544.,4.8,26112.,4.8,0.,4.8,0.,4.8
1979-03-07 03:03:02.390 ,3,1,560.,4.8,25600.,4.8,0.,4.8,0.,4.8
1979-03-07 03:03:07.190 ,3,1,488.,4.8,23040.,4.8,0.,4.8,0.,4.8
1979-03-07 03:03:11.990 ,0,1,252.,4.8,17920.,4.8,0.,4.8,0.,4.8
1979-03-07 03:03:16.790 ,0,1,480.,4.8,19968.,4.8,0.,4.8,0.,4.8
1979-03-07 03:03:21.590 ,0,1,480.,4.8,20992.,4.8,0.,4.8,0.,4.8
1979-03-07 03:03:26.390 ,0,1,528.,4.8,22016.,4.8,0.,4.8,0.,4.8
1979-03-07 03:03:31.190 ,0,1,560.,4.8,22528.,4.8,0.,4.8,0.,4.8
1979-03-07 03:03:35.990 ,4,1,560.,4.8,22016.,4.8,0.,4.8,0.,4.8
1979-03-07 03:03:40.790 ,4,1,528.,4.8,20992.,4.8,0.,4.8,0.,4.8
1979-03-07 03:03:45.590 ,4,1,496.,4.8,19968.,4.8,0.,4.8,0.,4.8
1979-03-07 03:03:50.390 ,4,1,400.,4.8,18944.,4.8,0.,4.8,0.,4.8
1979-03-07 03:03:55.190 ,4,1,312.,4.8,17920.,4.8,0.,4.8,0.,4.8
1979-03-07 03:03:59.990 ,7,1,512.,4.8,23552.,4.8,0.,4.8,0.,4.8
1979-03-07 03:04:04.790 ,7,1,528.,4.8,25088.,4.8,0.,4.8,0.,4.8
1979-03-07 03:04:09.590 ,7,1,528.,4.8,23552.,4.8,0.,4.8,0.,4.8
1979-03-07 03:04:14.390 ,7,1,496.,4.8,22016.,4.8,0.,4.8,0.,4.8
1979-03-07 03:04:19.190 ,7,1,416.,4.8,19968.,4.8,0.,4.8,0.,4.8
1979-03-07 03:04:23.990 ,3,1,440.,4.8,19456.,4.8,0.,4.8,0.,4.8
1979-03-07 03:04:28.790 ,3,1,496.,4.8,22528.,4.8,0.,4.8,0.,4.8
1979-03-07 03:04:33.590 ,3,1,512.,4.8,23552.,4.8,0.,4.8,0.,4.8
1979-03-07 03:04:38.390 ,3,1,496.,4.8,23040.,4.8,0.,4.8,0.,4.8
1979-03-07 03:04:43.190 ,3,1,432.,4.8,20480.,4.8,0.,4.8,0.,4.8
1979-03-07 03:04:47.990 ,0,1,228.,4.8,15616.,4.8,0.,4.8,0.,4.8
1979-03-07 03:04:52.790 ,0,1,416.,4.8,17408.,4.8,1.,4.8,0.,4.8
1979-03-07 03:04:57.590 ,0,1,440.,4.8,18432.,4.8,0.,4.8,0.,4.8
1979-03-07 03:05:02.390 ,0,1,456.,4.8,19456.,4.8,0.,4.8,0.,4.8
1979-03-07 03:05:07.190 ,0,1,488.,4.8,19968.,4.8,0.,4.8,0.,4.8
1979-03-07 03:05:11.990 ,4,1,496.,4.8,20480.,4.8,0.,4.8,0.,4.8
1979-03-07 03:05:16.790 ,4,1,496.,4.8,19968.,4.8,0.,4.8,0.,4.8
1979-03-07 03:05:21.590 ,4,1,472.,4.8,18944.,4.8,0.,4.8,0.,4.8
1979-03-07 03:05:26.390 ,4,1,376.,4.8,16896.,4.8,0.,4.8,0.,4.8
1979-03-07 03:05:31.190 ,4,1,272.,4.8,16896.,4.8,0.,4.8,0.,4.8
1979-03-07 03:05:35.990 ,7,1,432.,4.8,22016.,4.8,0.,4.8,0.,4.8
1979-03-07 03:05:40.790 ,7,1,512.,4.8,24064.,4.8,0.,4.8,0.,4.8
1979-03-07 03:05:45.590 ,7,1,504.,4.8,23040.,4.8,0.,4.8,0.,4.8
1979-03-07 03:05:50.390 ,7,1,488.,4.8,20480.,4.8,0.,4.8,0.,4.8
1979-03-07 03:05:55.190 ,7,1,400.,4.8,18432.,4.8,0.,4.8,0.,4.8
1979-03-07 03:05:59.990 ,3,1,432.,4.8,18432.,4.8,0.,4.8,0.,4.8
1979-03-07 03:06:04.790 ,3,1,480.,4.8,21504.,4.8,0.,4.8,0.,4.8
1979-03-07 03:06:09.590 ,3,1,480.,4.8,23552.,4.8,0.,4.8,0.,4.8
1979-03-07 03:06:14.390 ,3,1,472.,4.8,22528.,4.8,2.,4.8,0.,4.8
1979-03-07 03:06:19.190 ,3,1,448.,4.8,20480.,4.8,0.,4.8,0.,4.8
1979-03-07 03:06:23.990 ,0,1,200.,4.8,16128.,4.8,1.,4.8,0.,4.8
1979-03-07 03:06:28.790 ,0,1,448.,4.8,17920.,4.8,1.,4.8,0.,4.8
1979-03-07 03:06:33.590 ,0,1,456.,4.8,18944.,4.8,1.,4.8,0.,4.8
1979-03-07 03:06:38.390 ,0,1,504.,4.8,19456.,4.8,0.,4.8,0.,4.8
1979-03-07 03:06:43.190 ,0,1,488.,4.8,19968.,4.8,0.,4.8,0.,4.8
1979-03-07 03:06:47.990 ,4,1,504.,4.8,19968.,4.8,0.,4.8,0.,4.8
1979-03-07 03:06:52.790 ,4,1,488.,4.8,19456.,4.8,0.,4.8,0.,4.8
1979-03-07 03:06:57.590 ,4,1,448.,4.8,18432.,4.8,0.,4.8,0.,4.8
1979-03-07 03:07:02.390 ,4,1,368.,4.8,16896.,4.8,0.,4.8,0.,4.8
1979-03-07 03:07:07.190 ,4,1,264.,4.8,16384.,4.8,0.,4.8,0.,4.8
1979-03-07 03:07:11.990 ,7,1,408.,4.8,21504.,4.8,0.,4.8,0.,4.8
1979-03-07 03:07:16.790 ,7,1,464.,4.8,23552.,4.8,0.,4.8,0.,4.8
1979-03-07 03:07:21.590 ,7,1,512.,4.8,22528.,4.8,0.,4.8,0.,4.8
1979-03-07 03:07:26.390 ,7,1,424.,4.8,19968.,4.8,0.,4.8,0.,4.8
1979-03-07 03:07:31.190 ,7,1,392.,4.8,17920.,4.8,0.,4.8,0.,4.8
1979-03-07 03:07:35.990 ,3,1,408.,4.8,17920.,4.8,0.,4.8,0.,4.8
1979-03-07 03:07:40.790 ,3,1,480.,4.8,20992.,4.8,0.,4.8,0.,4.8
1979-03-07 03:07:45.590 ,3,1,528.,4.8,22528.,4.8,0.,4.8,0.,4.8
1979-03-07 03:07:50.390 ,3,1,464.,4.8,22016.,4.8,0.,4.8,0.,4.8
1979-03-07 03:07:55.190 ,3,1,432.,4.8,19968.,4.8,0.,4.8,0.,4.8
1979-03-07 03:07:59.990 ,0,1,224.,4.8,15360.,4.8,0.,4.8,0.,4.8
1979-03-07 03:08:04.790 ,0,1,,0,,0,,0,,0
1979-03-07 03:08:09.590 ,0,1,496.,4.8,18432.,4.8,0.,4.8,0.,4.8
1979-03-07 03:08:14.390 ,0,1,504.,4.8,18944.,4.8,0.,4.8,0.,4.8
1979-03-07 03:08:19.190 ,0,1,480.,4.8,19456.,4.8,0.,4.8,0.,4.8
1979-03-07 03:08:23.990 ,4,1,464.,4.8,19456.,4.8,0.,4.8,0.,4.8
1979-03-07 03:08:28.790 ,4,1,480.,4.8,18944.,4.8,0.,4.8,0.,4.8
1979-03-07 03:08:33.590 ,4,1,496.,4.8,17920.,4.8,1.,4.8,0.,4.8
1979-03-07 03:08:38.390 ,4,1,368.,4.8,16896.,4.8,0.,4.8,0.,4.8
1979-03-07 03:08:43.190 ,4,1,280.,4.8,16384.,4.8,0.,4.8,0.,4.8
1979-03-07 03:08:47.990 ,7,1,464.,4.8,21504.,4.8,0.,4.8,0.,4.8
1979-03-07 03:08:52.800 ,7,1,488.,4.8,23040.,4.8,0.,4.8,0.,4.8
1979-03-07 03:08:57.600 ,7,1,472.,4.8,22016.,4.8,1.,4.8,0.,4.8
1979-03-07 03:09:02.400 ,7,1,448.,4.8,19456.,4.8,0.,4.8,0.,4.8
1979-03-07 03:09:07.200 ,7,1,384.,4.8,17408.,4.8,0.,4.8,0.,4.8
1979-03-07 03:09:11.990 ,3,1,392.,4.8,17920.,4.8,0.,4.8,0.,4.8
1979-03-07 03:09:16.790 ,3,1,496.,4.8,20992.,4.8,0.,4.8,0.,4.8
1979-03-07 03:09:21.600 ,3,1,480.,4.8,24576.,4.8,0.,4.8,0.,4.8
1979-03-07 03:09:26.400 ,3,1,504.,4.8,24064.,4.8,0.,4.8,0.,4.8
1979-03-07 03:09:31.200 ,3,1,464.,4.8,22528.,4.8,0.,4.8,0.,4.8
1979-03-07 03:09:35.990 ,0,1,240.,4.8,17920.,4.8,0.,4.8,0.,4.8
1979-03-07 03:09:40.800 ,0,1,464.,4.8,18944.,4.8,0.,4.8,0.,4.8
1979-03-07 03:09:45.600 ,0,1,472.,4.8,19968.,4.8,0.,4.8,0.,4.8
1979-03-07 03:09:50.400 ,0,1,528.,4.8,20480.,4.8,0.,4.8,0.,4.8
1979-03-07 03:09:55.200 ,0,1,528.,4.8,22016.,4.8,0.,4.8,0.,4.8
1979-03-07 03:09:59.990 ,4,1,528.,4.8,23040.,4.8,0.,4.8,0.,4.8
1979-03-07 03:10:04.800 ,4,1,504.,4.8,23040.,4.8,0.,4.8,0.,4.8
1979-03-07 03:10:09.600 ,4,1,528.,4.8,22016.,4.8,0.,4.8,0.,4.8
1979-03-07 03:10:14.400 ,4,1,376.,4.8,20992.,4.8,0.,4.8,0.,4.8
1979-03-07 03:10:19.200 ,4,1,312.,4.8,20992.,4.8,0.,4.8,0.,4.8
1979-03-07 03:10:23.990 ,7,1,592.,4.8,28160.,4.8,0.,4.8,0.,4.8
1979-03-07 03:10:28.790 ,7,1,640.,4.8,31744.,4.8,0.,4.8,0.,4.8
1979-03-07 03:10:33.600 ,7,1,640.,4.8,30720.,4.8,0.,4.8,0.,4.8
1979-03-07 03:10:38.400 ,7,1,560.,4.8,28160.,4.8,0.,4.8,0.,4.8
1979-03-07 03:10:43.200 ,7,1,488.,4.8,25088.,4.8,0.,4.8,0.,4.8
1979-03-07 03:10:47.990 ,3,1,496.,4.8,24576.,4.8,0.,4.8,0.,4.8
1979-03-07 03:10:52.800 ,3,1,544.,4.8,28672.,4.8,0.,4.8,0.,4.8
1979-03-07 03:10:57.600 ,3,1,608.,4.8,30720.,4.8,0.,4.8,0.,4.8
1979-03-07 03:11:02.400 ,3,1,608.,4.8,29696.,4.8,0.,4.8,0.,4.8
1979-03-07 03:11:07.200 ,3,1,488.,4.8,25600.,4.8,0.,4.8,0.,4.8
1979-03-07 03:11:11.990 ,0,1,288.,4.8,19456.,4.8,0.,4.8,0.,4.8
1979-03-07 03:11:16.790 ,0,1,480.,4.8,20992.,4.8,0.,4.8,0.,4.8
1979-03-07 03:11:21.600 ,0,1,528.,4.8,22016.,4.8,0.,4.8,0.,4.8
1979-03-07 03:11:26.400 ,0,1,544.,4.8,22016.,4.8,0.,4.8,0.,4.8
1979-03-07 03:11:31.200 ,0,1,496.,4.8,22016.,4.8,0.,4.8,0.,4.8
1979-03-07 03:11:35.990 ,4,1,512.,4.8,20992.,4.8,0.,4.8,0.,4.8
1979-03-07 03:11:40.800 ,4,1,496.,4.8,18944.,4.8,0.,4.8,0.,4.8
1979-03-07 03:11:45.600 ,4,1,416.,4.8,17408.,4.8,0.,4.8,0.,4.8
1979-03-07 03:11:50.400 ,4,1,320.,4.8,16128.,4.8,0.,4.8,0.,4.8
1979-03-07 03:11:55.200 ,4,1,248.,4.8,15616.,4.8,0.,4.8,0.,4.8
1979-03-07 03:11:59.990 ,7,1,456.,4.8,20992.,4.8,0.,4.8,0.,4.8
1979-03-07 03:12:04.790 ,7,1,472.,4.8,23552.,4.8,0.,4.8,0.,4.8
1979-03-07 03:12:09.600 ,7,1,504.,4.8,22528.,4.8,0.,4.8,0.,4.8
1979-03-07 03:12:14.400 ,7,1,464.,4.8,20480.,4.8,0.,4.8,0.,4.8
1979-03-07 03:12:19.200 ,7,1,392.,4.8,17920.,4.8,0.,4.8,0.,4.8
1979-03-07 03:12:23.990 ,3,1,376.,4.8,17408.,4.8,0.,4.8,0.,4.8
1979-03-07 03:12:28.790 ,3,1,472.,4.8,20480.,4.8,0.,4.8,0.,4.8
1979-03-07 03:12:33.600 ,3,1,488.,4.8,23040.,4.8,0.,4.8,0.,4.8
1979-03-07 03:12:38.400 ,3,1,496.,4.8,23040.,4.8,0.,4.8,0.,4.8
1979-03-07 03:12:43.200 ,3,1,448.,4.8,20992.,4.8,0.,4.8,0.,4.8
1979-03-07 03:12:47.990 ,0,1,248.,4.8,16384.,4.8,0.,4.8,0.,4.8
1979-03-07 03:12:52.800 ,0,1,424.,4.8,17920.,4.8,0.,4.8,0.,4.8
1979-03-07 03:12:57.600 ,0,1,480.,4.8,19456.,4.8,0.,4.8,0.,4.8
1979-03-07 03:13:02.400 ,0,1,512.,4.8,20480.,4.8,0.,4.8,0.,4.8
1979-03-07 03:13:07.200 ,0,1,528.,4.8,22016.,4.8,0.,4.8,0.,4.8
1979-03-07 03:13:11.990 ,4,1,576.,4.8,22016.,4.8,0.,4.8,0.,4.8
1979-03-07 03:13:16.790 ,4,1,512.,4.8,20992.,4.8,0.,4.8,0.,4.8
1979-03-07 03:13:21.600 ,4,1,496.,4.8,19968.,4.8,0.,4.8,0.,4.8
1979-03-07 03:13:26.400 ,4,1,440.,4.8,18944.,4.8,0.,4.8,0.,4.8
1979-03-07 03:13:31.200 ,4,1,288.,4.8,17920.,4.8,0.,4.8,0.,4.8
1979-03-07 03:13:35.990 ,7,1,504.,4.8,23040.,4.8,0.,4.8,0.,4.8
1979-03-07 03:13:40.800 ,7,1,528.,4.8,25088.,4.8,0.,4.8,0.,4.8
1979-03-07 03:13:45.600 ,7,1,512.,4.8,24064.,4.8,0.,4.8,0.,4.8
1979-03-07 03:13:50.400 ,7,1,464.,4.8,22016.,4.8,0.,4.8,0.,4.8
1979-03-07 03:13:55.200 ,7,1,432.,4.8,19456.,4.8,0.,4.8,0.,4.8
1979-03-07 03:13:59.990 ,3,1,416.,4.8,19456.,4.8,0.,4.8,0.,4.8
1979-03-07 03:14:04.790 ,3,1,496.,4.8,23040.,4.8,0.,4.8,0.,4.8
1979-03-07 03:14:09.600 ,3,1,512.,4.8,25088.,4.8,0.,4.8,0.,4.8
1979-03-07 03:14:14.400 ,3,1,512.,4.8,25088.,4.8,0.,4.8,0.,4.8
1979-03-07 03:14:19.200 ,3,1,472.,4.8,22016.,4.8,0.,4.8,0.,4.8
1979-03-07 03:14:23.990 ,0,1,264.,4.8,17408.,4.8,0.,4.8,0.,4.8
1979-03-07 03:14:28.790 ,0,1,440.,4.8,19456.,4.8,0.,4.8,0.,4.8
1979-03-07 03:14:33.600 ,0,1,544.,4.8,20480.,4.8,0.,4.8,0.,4.8
1979-03-07 03:14:38.400 ,0,1,544.,4.8,21504.,4.8,0.,4.8,0.,4.8
1979-03-07 03:14:43.200 ,0,1,496.,4.8,22016.,4.8,0.,4.8,0.,4.8
1979-03-07 03:14:47.990 ,4,1,544.,4.8,22528.,4.8,0.,4.8,0.,4.8
1979-03-07 03:14:52.800 ,4,1,496.,4.8,20992.,4.8,0.,4.8,0.,4.8
1979-03-07 03:14:57.600 ,4,1,480.,4.8,19968.,4.8,0.,4.8,0.,4.8
1979-03-07 03:15:02.400 ,4,1,384.,4.8,18432.,4.8,0.,4.8,0.,4.8
1979-03-07 03:15:07.200 ,4,1,288.,4.8,17920.,4.8,0.,4.8,0.,4.8
1979-03-07 03:15:11.990 ,7,1,544.,4.8,23552.,4.8,0.,4.8,0.,4.8
1979-03-07 03:15:16.790 ,7,1,496.,4.8,25600.,4.8,0.,4.8,0.,4.8
1979-03-07 03:15:21.600 ,7,1,528.,4.8,24576.,4.8,0.,4.8,0.,4.8
1979-03-07 03:15:26.400 ,7,1,480.,4.8,22016.,4.8,0.,4.8,0.,4.8
1979-03-07 03:15:31.200 ,7,1,384.,4.8,19968.,4.8,0.,4.8,0.,4.8
1979-03-07 03:15:35.990 ,3,1,432.,4.8,19968.,4.8,0.,4.8,0.,4.8
1979-03-07 03:15:40.800 ,3,1,496.,4.8,23040.,4.8,0.,4.8,0.,4.8
1979-03-07 03:15:45.600 ,3,1,544.,4.8,25088.,4.8,0.,4.8,0.,4.8
1979-03-07 03:15:50.400 ,3,1,544.,4.8,24576.,4.8,0.,4.8,0.,4.8
1979-03-07 03:15:55.200 ,3,1,488.,4.8,22528.,4.8,0.,4.8,0.,4.8
1979-03-07 03:15:59.990 ,0,1,212.,4.8,17408.,4.8,0.,4.8,0.,4.8
1979-03-07 03:16:04.790 ,0,1,512.,4.8,19456.,4.8,0.,4.8,0.,4.8
1979-03-07 03:16:09.600 ,0,1,448.,4.8,20480.,4.8,0.,4.8,0.,4.8
1979-03-07 03:16:14.400 ,0,1,472.,4.8,21504.,4.8,0.,4.8,0.,4.8
1979-03-07 03:16:19.200 ,0,1,528.,4.8,21504.,4.8,0.,4.8,0.,4.8
1979-03-07 03:16:23.990 ,4,1,528.,4.8,21504.,4.8,0.,4.8,0.,4.8
1979-03-07 03:16:28.790 ,4,1,512.,4.8,20480.,4.8,0.,4.8,0.,4.8
1979-03-07 03:16:33.600 ,4,1,512.,4.8,19968.,4.8,0.,4.8,0.,4.8
1979-03-07 03:16:38.400 ,4,1,368.,4.8,18432.,4.8,0.,4.8,0.,4.8
1979-03-07 03:16:43.200 ,4,1,272.,4.8,17408.,4.8,0.,4.8,0.,4.8
1979-03-07 03:16:47.990 ,7,1,488.,4.8,22528.,4.8,0.,4.8,0.,4.8
1979-03-07 03:16:52.800 ,7,1,504.,4.8,25088.,4.8,0.,4.8,0.,4.8
1979-03-07 03:16:57.600 ,7,1,528.,4.8,24064.,4.8,0.,4.8,0.,4.8
1979-03-07 03:17:02.400 ,7,1,496.,4.8,22016.,4.8,0.,4.8,0.,4.8
1979-03-07 03:17:07.200 ,7,1,400.,4.8,19456.,4.8,0.,4.8,0.,4.8
1979-03-07 03:17:11.990 ,3,1,400.,4.8,19456.,4.8,0.,4.8,0.,4.8
1979-03-07 03:17:16.790 ,3,1,512.,4.8,22528.,4.8,0.,4.8,0.,4.8
1979-03-07 03:17:21.590 ,3,1,560.,4.8,24576.,4.8,0.,4.8,0.,4.8
1979-03-07 03:17:26.390 ,3,1,496.,4.8,24064.,4.8,0.,4.8,0.,4.8
1979-03-07 03:17:31.190 ,3,1,488.,4.8,21504.,4.8,1.,4.8,0.,4.8
1979-03-07 03:17:36.000 ,0,1,232.,4.8,16384.,4.8,0.,4.8,0.,4.8
1979-03-07 03:17:40.800 ,0,1,432.,4.8,19456.,4.8,0.,4.8,0.,4.8
1979-03-07 03:17:45.600 ,0,1,512.,4.8,20480.,4.8,0.,4.8,0.,4.8
1979-03-07 03:17:50.400 ,0,1,528.,4.8,21504.,4.8,0.,4.8,0.,4.8
1979-03-07 03:17:55.200 ,0,1,512.,4.8,21504.,4.8,0.,4.8,0.,4.8
1979-03-07 03:17:60.000 ,4,1,488.,4.8,20992.,4.8,0.,4.8,0.,4.8
1979-03-07 03:18:04.800 ,4,1,456.,4.8,19968.,4.8,0.,4.8,0.,4.8
1979-03-07 03:18:09.600 ,4,1,512.,4.8,19456.,4.8,0.,4.8,0.,4.8
1979-03-07 03:18:14.400 ,4,1,360.,4.8,18944.,4.8,1.,4.8,0.,4.8
1979-03-07 03:18:19.200 ,4,1,304.,4.8,19456.,4.8,0.,4.8,0.,4.8
1979-03-07 03:18:24.000 ,7,1,504.,4.8,25600.,4.8,0.,4.8,0.,4.8
1979-03-07 03:18:28.800 ,7,1,592.,4.8,28160.,4.8,0.,4.8,0.,4.8
1979-03-07 03:18:33.600 ,7,1,512.,4.8,26624.,4.8,0.,4.8,0.,4.8
1979-03-07 03:18:38.400 ,7,1,488.,4.8,24064.,4.8,0.,4.8,0.,4.8
1979-03-07 03:18:43.200 ,7,1,440.,4.8,21504.,4.8,0.,4.8,0.,4.8
1979-03-07 03:18:48.000 ,3,1,424.,4.8,21504.,4.8,0.,4.8,0.,4.8
1979-03-07 03:18:52.800 ,3,1,504.,4.8,24576.,4.8,0.,4.8,0.,4.8
1979-03-07 03:18:57.600 ,3,1,544.,4.8,26112.,4.8,0.,4.8,0.,4.8
1979-03-07 03:19:02.400 ,3,1,504.,4.8,26112.,4.8,0.,4.8,0.,4.8
1979-03-07 03:19:07.200 ,3,1,464.,4.8,23040.,4.8,0.,4.8,0.,4.8
1979-03-07 03:19:12.000 ,0,1,264.,4.8,17920.,4.8,0.,4.8,0.,4.8
1979-03-07 03:19:16.800 ,0,1,448.,4.8,20480.,4.8,0.,4.8,0.,4.8
1979-03-07 03:19:21.600 ,0,1,576.,4.8,22528.,4.8,0.,4.8,0.,4.8
1979-03-07 03:19:26.400 ,0,1,544.,4.8,24064.,4.8,0.,4.8,0.,4.8
1979-03-07 03:19:31.200 ,0,1,528.,4.8,24064.,4.8,0.,4.8,0.,4.8
1979-03-07 03:19:36.000 ,4,1,544.,4.8,24064.,4.8,1.,4.8,0.,4.8
1979-03-07 03:19:40.800 ,4,1,560.,4.8,23040.,4.8,0.,4.8,0.,4.8
1979-03-07 03:19:45.600 ,4,1,512.,4.8,22016.,4.8,0.,4.8,0.,4.8
1979-03-07 03:19:50.400 ,4,1,400.,4.8,19456.,4.8,0.,4.8,0.,4.8
1979-03-07 03:19:55.200 ,4,1,288.,4.8,18432.,4.8,0.,4.8,0.,4.8
1979-03-07 03:19:60.000 ,7,1,528.,4.8,24576.,4.8,0.,4.8,0.,4.8
1979-03-07 03:20:04.800 ,7,1,544.,4.8,27648.,4.8,0.,4.8,0.,4.8
1979-03-07 03:20:09.600 ,7,1,560.,4.8,26624.,4.8,0.,4.8,0.,4.8
1979-03-07 03:20:14.400 ,7,1,512.,4.8,24064.,4.8,0.,4.8,0.,4.8
1979-03-07 03:20:19.200 ,7,1,472.,4.8,22016.,4.8,0.,4.8,0.,4.8
1979-03-07 03:20:24.000 ,3,1,424.,4.8,22016.,4.8,0.,4.8,0.,4.8
1979-03-07 03:20:28.800 ,3,1,544.,4.8,26112.,4.8,0.,4.8,0.,4.8
1979-03-07 03:20:33.600 ,3,1,528.,4.8,28160.,4.8,0.,4.8,0.,4.8
1979-03-07 03:20:38.400 ,3,1,544.,4.8,27136.,4.8,0.,4.8,0.,4.8
1979-03-07 03:20:43.200 ,3,1,424.,4.8,24064.,4.8,0.,4.8,0.,4.8
1979-03-07 03:20:48.000 ,0,1,244.,4.8,17920.,4.8,0.,4.8,0.,4.8
1979-03-07 03:20:52.800 ,0,1,432.,4.8,19968.,4.8,0.,4.8,0.,4.8
1979-03-07 03:20:57.600 ,0,1,544.,4.8,22016.,4.8,0.,4.8,0.,4.8
1979-03-07 03:21:02.400 ,0,1,528.,4.8,22528.,4.8,0.,4.8,0.,4.8
1979-03-07 03:21:07.200 ,0,1,528.,4.8,22528.,4.8,0.,4.8,0.,4.8
1979-03-07 03:21:12.000 ,4,1,512.,4.8,22528.,4.8,0.,4.8,0.,4.8
1979-03-07 03:21:16.800 ,4,1,512.,4.8,20992.,4.8,0.,4.8,0.,4.8
1979-03-07 03:21:21.600 ,4,1,496.,4.8,19968.,4.8,0.,4.8,0.,4.8
1979-03-07 03:21:26.400 ,4,1,376.,4.8,17920.,4.8,0.,4.8,0.,4.8
1979-03-07 03:21:31.200 ,4,1,240.,4.8,16896.,4.8,0.,4.8,0.,4.8
1979-03-07 03:21:36.000 ,7,1,464.,4.8,22016.,4.8,0.,4.8,0.,4.8
1979-03-07 03:21:40.800 ,7,1,488.,4.8,23552.,4.8,0.,4.8,0.,4.8
1979-03-07 03:21:45.600 ,7,1,496.,4.8,22528.,4.8,0.,4.8,0.,4.8
1979-03-07 03:21:50.400 ,7,1,456.,4.8,20480.,4.8,0.,4.8,0.,4.8
1979-03-07 03:21:55.200 ,7,1,376.,4.8,17920.,4.8,0.,4.8,0.,4.8
1979-03-07 03:21:60.000 ,3,1,392.,4.8,17920.,4.8,0.,4.8,0.,4.8
1979-03-07 03:22:04.800 ,3,1,424.,4.8,20992.,4.8,0.,4.8,0.,4.8
1979-03-07 03:22:09.600 ,3,1,480.,4.8,23552.,4.8,0.,4.8,0.,4.8
1979-03-07 03:22:14.400 ,3,1,488.,4.8,23040.,4.8,0.,4.8,0.,4.8
1979-03-07 03:22:19.200 ,3,1,432.,4.8,20480.,4.8,0.,4.8,0.,4.8
1979-03-07 03:22:24.000 ,0,1,224.,4.8,15872.,4.8,0.,4.8,0.,4.8
1979-03-07 03:22:28.800 ,0,1,432.,4.8,18944.,4.8,0.,4.8,0.,4.8
1979-03-07 03:22:33.600 ,0,1,480.,4.8,20992.,4.8,0.,4.8,0.,4.8
1979-03-07 03:22:38.400 ,0,1,528.,4.8,21504.,4.8,1.,4.8,0.,4.8
1979-03-07 03:22:43.200 ,0,1,496.,4.8,21504.,4.8,0.,4.8,0.,4.8
1979-03-07 03:22:48.000 ,4,1,512.,4.8,20992.,4.8,0.,4.8,0.,4.8
1979-03-07 03:22:52.800 ,4,1,488.,4.8,19968.,4.8,0.,4.8,0.,4.8
1979-03-07 03:22:57.600 ,4,1,480.,4.8,18432.,4.8,0.,4.8,0.,4.8
1979-03-07 03:23:02.400 ,4,1,344.,4.8,16896.,4.8,0.,4.8,0.,4.8
1979-03-07 03:23:07.200 ,4,1,256.,4.8,16128.,4.8,0.,4.8,0.,4.8
1979-03-07 03:23:12.000 ,7,1,440.,4.8,20480.,4.8,0.,4.8,0.,4.8
1979-03-07 03:23:16.800 ,7,1,448.,4.8,22016.,4.8,0.,4.8,0.,4.8
1979-03-07 03:23:21.600 ,7,1,440.,4.8,18944.,4.8,0.,4.8,0.,4.8
1979-03-07 03:23:26.400 ,7,1,432.,4.8,17408.,4.8,0.,4.8,0.,4.8
1979-03-07 03:23:31.200 ,7,1,384.,4.8,15872.,4.8,0.,4.8,0.,4.8
1979-03-07 03:23:36.000 ,3,1,336.,4.8,14592.,4.8,0.,4.8,0.,4.8
1979-03-07 03:23:40.800 ,3,1,384.,4.8,15872.,4.8,0.,4.8,0.,4.8
1979-03-07 03:23:45.600 ,3,1,400.,4.8,16128.,4.8,0.,4.8,0.,4.8
1979-03-07 03:23:50.400 ,3,1,376.,4.8,15104.,4.8,0.,4.8,0.,4.8
1979-03-07 03:23:55.200 ,3,1,320.,4.8,13824.,4.8,0.,4.8,0.,4.8
1979-03-07 03:23:60.000 ,0,1,164.,4.8,10240.,4.8,0.,4.8,0.,4.8
1979-03-07 03:24:04.800 ,0,1,328.,4.8,11008.,4.8,0.,4.8,0.,4.8
1979-03-07 03:24:09.600 ,0,1,344.,4.8,11264.,4.8,0.,4.8,0.,4.8
1979-03-07 03:24:14.400 ,0,1,368.,4.8,11776.,4.8,0.,4.8,0.,4.8
1979-03-07 03:24:19.200 ,0,1,376.,4.8,11776.,4.8,0.,4.8,0.,4.8
1979-03-07 03:24:24.000 ,4,1,328.,4.8,11008.,4.8,0.,4.8,0.,4.8
1979-03-07 03:24:28.800 ,4,1,320.,4.8,11008.,4.8,0.,4.8,0.,4.8
1979-03-07 03:24:33.600 ,4,1,352.,4.8,11520.,4.8,0.,4.8,0.,4.8
1979-03-07 03:24:38.400 ,4,1,264.,4.8,10752.,4.8,0.,4.8,0.,4.8
1979-03-07 03:24:43.200 ,4,1,212.,4.8,11520.,4.8,0.,4.8,0.,4.8
1979-03-07 03:24:48.000 ,7,1,352.,4.8,14592.,4.8,0.,4.8,0.,4.8
1979-03-07 03:24:52.800 ,7,1,328.,4.8,16128.,4.8,0.,4.8,0.,4.8
1979-03-07 03:24:57.600 ,7,1,336.,4.8,15104.,4.8,0.,4.8,0.,4.8
1979-03-07 03:25:02.400 ,7,1,328.,4.8,13312.,4.8,0.,4.8,0.,4.8
1979-03-07 03:25:07.200 ,7,1,280.,4.8,11776.,4.8,0.,4.8,0.,4.8
1979-03-07 03:25:12.000 ,3,1,288.,4.8,11520.,4.8,0.,4.8,0.,4.8
1979-03-07 03:25:16.800 ,3,1,288.,4.8,13312.,4.8,0.,4.8,0.,4.8
1979-03-07 03:25:21.600 ,3,1,368.,4.8,15616.,4.8,0.,4.8,0.,4.8
1979-03-07 03:25:26.400 ,3,1,368.,4.8,15616.,4.8,0.,4.8,0.,4.8
1979-03-07 03:25:31.200 ,3,1,304.,4.8,13056.,4.8,0.,4.8,0.,4.8
1979-03-07 03:25:36.000 ,0,1,136.,4.8,9728.,4.8,0.,4.8,0.,4.8
1979-03-07 03:25:40.800 ,0,1,344.,4.8,10752.,4.8,0.,4.8,0.,4.8
1979-03-07 03:25:45.600 ,0,1,360.,4.8,11264.,4.8,0.,4.8,0.,4.8
1979-03-07 03:25:50.400 ,0,1,336.,4.8,11776.,4.8,0.,4.8,0.,4.8
1979-03-07 03:25:55.200 ,0,1,344.,4.8,12032.,4.8,0.,4.8,0.,4.8
1979-03-07 03:25:60.000 ,4,1,352.,4.8,12032.,4.8,0.,4.8,0.,4.8
1979-03-07 03:26:04.800 ,4,1,360.,4.8,11776.,4.8,0.,4.8,0.,4.8
1979-03-07 03:26:09.600 ,4,1,360.,4.8,11520.,4.8,0.,4.8,0.,4.8
1979-03-07 03:26:14.400 ,4,1,236.,4.8,10496.,4.8,0.,4.8,0.,4.8
1979-03-07 03:26:19.200 ,4,1,196.,4.8,9984.,4.8,0.,4.8,0.,4.8
1979-03-07 03:26:24.000 ,7,1,320.,4.8,13312.,4.8,0.,4.8,0.,4.8
1979-03-07 03:26:28.800 ,7,1,344.,4.8,15360.,4.8,0.,4.8,0.,4.8
1979-03-07 03:26:33.600 ,7,1,384.,4.8,15872.,4.8,0.,4.8,0.,4.8
1979-03-07 03:26:38.400 ,7,1,376.,4.8,15104.,4.8,0.,4.8,0.,4.8
1979-03-07 03:26:43.200 ,7,1,328.,4.8,14080.,4.8,0.,4.8,0.,4.8
1979-03-07 03:26:48.000 ,3,1,344.,4.8,13824.,4.8,0.,4.8,0.,4.8
1979-03-07 03:26:52.800 ,3,1,400.,4.8,15616.,4.8,0.,4.8,0.,4.8
1979-03-07 03:26:57.600 ,3,1,384.,4.8,16384.,4.8,0.,4.8,0.,4.8
1979-03-07 03:27:02.400 ,3,1,360.,4.8,15616.,4.8,0.,4.8,0.,4.8
1979-03-07 03:27:07.200 ,3,1,352.,4.8,14592.,4.8,0.,4.8,0.,4.8
1979-03-07 03:27:12.000 ,0,1,200.,4.8,11264.,4.8,0.,4.8,0.,4.8
1979-03-07 03:27:16.800 ,0,1,376.,4.8,13568.,4.8,0.,4.8,0.,4.8
1979-03-07 03:27:21.600 ,0,1,352.,4.8,14080.,4.8,0.,4.8,0.,4.8
1979-03-07 03:27:26.400 ,0,1,408.,4.8,14592.,4.8,0.,4.8,0.,4.8
1979-03-07 03:27:31.200 ,0,1,392.,4.8,14848.,4.8,0.,4.8,0.,4.8
1979-03-07 03:27:36.000 ,4,1,424.,4.8,14592.,4.8,0.,4.8,0.,4.8
1979-03-07 03:27:40.800 ,4,1,384.,4.8,14080.,4.8,0.,4.8,0.,4.8
1979-03-07 03:27:45.600 ,4,1,360.,4.8,13056.,4.8,0.,4.8,0.,4.8
1979-03-07 03:27:50.400 ,4,1,288.,4.8,11776.,4.8,0.,4.8,0.,4.8
1979-03-07 03:27:55.200 ,4,1,204.,4.8,11776.,4.8,0.,4.8,0.,4.8
1979-03-07 03:27:60.000 ,7,1,368.,4.8,15104.,4.8,0.,4.8,0.,4.8
1979-03-07 03:28:04.800 ,7,1,368.,4.8,16896.,4.8,0.,4.8,0.,4.8
1979-03-07 03:28:09.600 ,7,1,400.,4.8,16128.,4.8,0.,4.8,0.,4.8
1979-03-07 03:28:14.400 ,7,1,352.,4.8,14848.,4.8,0.,4.8,0.,4.8
1979-03-07 03:28:19.200 ,7,1,320.,4.8,12800.,4.8,0.,4.8,0.,4.8
1979-03-07 03:28:24.000 ,3,1,328.,4.8,13056.,4.8,0.,4.8,0.,4.8
1979-03-07 03:28:28.800 ,3,1,360.,4.8,14848.,4.8,0.,4.8,0.,4.8
1979-03-07 03:28:33.600 ,3,1,384.,4.8,16128.,4.8,0.,4.8,0.,4.8
1979-03-07 03:28:38.400 ,3,1,384.,4.8,16128.,4.8,0.,4.8,0.,4.8
1979-03-07 03:28:43.200 ,3,1,312.,4.8,14336.,4.8,0.,4.8,0.,4.8
1979-03-07 03:28:48.000 ,0,1,180.,4.8,11264.,4.8,0.,4.8,0.,4.8
1979-03-07 03:28:52.800 ,0,1,336.,4.8,12544.,4.8,0.,4.8,0.,4.8
1979-03-07 03:28:57.600 ,0,1,392.,4.8,13312.,4.8,0.,4.8,0.,4.8
1979-03-07 03:29:02.400 ,0,1,384.,4.8,14080.,4.8,0.,4.8,0.,4.8
1979-03-07 03:29:07.200 ,0,1,384.,4.8,14848.,4.8,0.,4.8,0.,4.8
1979-03-07 03:29:12.000 ,4,1,424.,4.8,14592.,4.8,0.,4.8,0.,4.8
1979-03-07 03:29:16.800 ,4,1,336.,4.8,14336.,4.8,0.,4.8,0.,4.8
1979-03-07 03:29:21.600 ,4,1,376.,4.8,13568.,4.8,0.,4.8,0.,4.8
1979-03-07 03:29:26.400 ,4,1,304.,4.8,12288.,4.8,0.,4.8,0.,4.8
1979-03-07 03:29:31.200 ,4,1,188.,4.8,11776.,4.8,0.,4.8,0.,4.8
1979-03-07 03:29:36.000 ,7,1,344.,4.8,15616.,4.8,0.,4.8,0.,4.8
1979-03-07 03:29:40.800 ,7,1,376.,4.8,17408.,4.8,0.,4.8,0.,4.8
1979-03-07 03:29:45.600 ,7,1,384.,4.8,16896.,4.8,0.,4.8,0.,4.8
1979-03-07 03:29:50.400 ,7,1,368.,4.8,15104.,4.8,0.,4.8,0.,4.8
1979-03-07 03:29:55.200 ,7,1,320.,4.8,13312.,4.8,0.,4.8,0.,4.8
1979-03-07 03:29:60.000 ,3,1,304.,4.8,13312.,4.8,0.,4.8,0.,4.8
1979-03-07 03:30:04.800 ,3,1,392.,4.8,15616.,4.8,0.,4.8,0.,4.8
1979-03-07 03:30:09.600 ,3,1,408.,4.8,16384.,4.8,0.,4.8,0.,4.8
1979-03-07 03:30:14.400 ,3,1,384.,4.8,16384.,4.8,0.,4.8,0.,4.8